Change the Weather History Date:

Thursday, February 21, 2013

  Actual Average Record
Temperature  
Mean Temperature 23 °F 33 °F  
Max Temperature 27 °F 41 °F 62 °F (1953)
Min Temperature 19 °F 25 °F 6 °F (2008)
Degree Days  
Heating Degree Days 42 32  
Month to date heating degree days 765 708  
Since 1 July heating degree days 3796 3950  
Cooling Degree Days 0    
Month to date cooling degree days 0  
Year to date cooling degree days 0  
Moisture  
Dew Point 13 °F    
Average Humidity 66    
Maximum Humidity 77    
Minimum Humidity 55    
Precipitation  
Precipitation T in 0.07 in 1.06 in (2011)
Month to date precipitation 0.84 1.58  
Sea Level Pressure  
Sea Level Pressure 30.28 in    
Wind  
Wind Speed 9 mph (WNW)    
Max Wind Speed 14 mph    
Max Gust Speed 20 mph    
Visibility 8 miles    
Events Snow    
T = Trace of Precipitation, MM = Missing Value Source: NWS Daily Summary

Daily Weather History Graph

Daily Weather History Graph

Search for Another Location

Airport or City:

Trip Planner

Search our weather history database for the weather conditions in past years. The results will help you decide how hot, cold, wet, or windy it might be!

Date:

Astronomy

Feb. 21, 2013 Rise Set
Actual Time 7:07 AM EST 6:05 PM EST
Civil Twilight 6:39 AM EST 6:33 PM EST
Nautical Twilight 6:08 AM EST 7:04 PM EST
Astronomical Twilight 5:36 AM EST 7:36 PM EST
Moon 2:18 PM EST (2/21) 4:11 AM EST (2/21)
Length of Visible Light 11h 53m
Length of Day
10h 58m
Waxing Gibbous, 83% of the Moon is Illuminated
Feb 21
Waxing Gibbous
Feb 25
Full
Mar 4
Last Quarter
Mar 11
New
Mar 19
First Quarter

Hourly Weather History & Observations

Time (EST) Temp. Windchill Dew Point Humidity Pressure Visibility Wind Dir Wind Speed Gust Speed Precip Events Conditions
12:23 AM 19.4 °F 8.6 °F 12.2 °F 74% 30.17 in 10.0 mi West 9.2 mph - N/A   Overcast
12:53 AM 19.9 °F 8.6 °F 12.0 °F 71% 30.24 in 7.0 mi West 10.4 mph - 0.00 in Snow Light Snow
1:53 AM 19.9 °F 9.3 °F 12.9 °F 74% 30.24 in 7.0 mi West 9.2 mph - 0.00 in Snow Light Snow
2:09 AM 19.4 °F 7.2 °F 12.2 °F 74% 30.18 in 7.0 mi West 11.5 mph - 0.00 in Snow Light Snow
2:53 AM 19.9 °F 9.3 °F 14.0 °F 78% 30.25 in 3.0 mi West 9.2 mph - 0.00 in Snow Light Snow
3:00 AM 19.4 °F 10.4 °F 14.0 °F 80% 30.18 in 2.0 mi West 6.9 mph - 0.00 in Snow Light Snow
3:07 AM 19.4 °F 9.5 °F 15.8 °F 86% 30.19 in 1.5 mi West 8.1 mph - 0.00 in Snow Light Snow
3:19 AM 19.4 °F 8.6 °F 15.8 °F 86% 30.19 in 3.0 mi WNW 9.2 mph - 0.00 in Snow Light Snow
3:53 AM 19.0 °F 5.6 °F 12.9 °F 77% 30.25 in 10.0 mi WNW 13.8 mph 19.6 mph 0.00 in   Overcast
4:15 AM 19.4 °F 8.6 °F 12.2 °F 74% 30.19 in 10.0 mi WNW 9.2 mph - N/A   Overcast
4:53 AM 19.0 °F 8.2 °F 10.9 °F 71% 30.26 in 10.0 mi West 9.2 mph - N/A   Overcast
5:53 AM 19.0 °F 9.0 °F 10.9 °F 71% 30.28 in 10.0 mi West 8.1 mph - N/A   Overcast
6:53 AM 19.0 °F 8.2 °F 10.9 °F 71% 30.30 in 10.0 mi West 9.2 mph - N/A   Overcast
7:53 AM 19.0 °F 8.2 °F 12.0 °F 74% 30.31 in 5.0 mi West 9.2 mph - 0.00 in Snow Light Snow
8:53 AM 19.9 °F 7.9 °F 12.9 °F 74% 30.34 in 9.0 mi WNW 11.5 mph - 0.00 in   Overcast
9:28 AM 19.4 °F 8.6 °F 12.2 °F 74% 30.28 in 3.0 mi West 9.2 mph - 0.00 in Snow Light Snow
9:53 AM 21.0 °F 8.6 °F 12.9 °F 71% 30.34 in 10.0 mi WNW 12.7 mph - 0.00 in   Overcast
10:53 AM 21.9 °F 11.0 °F 12.0 °F 66% 30.35 in 10.0 mi WNW 10.4 mph - N/A   Overcast
11:53 AM 23.0 °F 13.1 °F 12.9 °F 65% 30.34 in 9.0 mi WNW 9.2 mph - 0.00 in   Overcast
12:09 PM 23.0 °F 13.9 °F 12.2 °F 63% 30.28 in 10.0 mi West 8.1 mph - N/A   Overcast
1:53 PM 24.1 °F 13.7 °F 14.0 °F 65% 30.33 in 10.0 mi WNW 10.4 mph - N/A   Overcast
2:53 PM 25.0 °F 19.3 °F 12.9 °F 60% 30.32 in 10.0 mi Variable 4.6 mph - N/A   Overcast
3:53 PM 26.1 °F 17.6 °F 12.9 °F 58% 30.29 in 10.0 mi North 8.1 mph - N/A   Overcast
4:29 PM 26.6 °F 22.6 °F 12.2 °F 55% 30.26 in 10.0 mi Variable 3.5 mph - N/A   Scattered Clouds
4:53 PM 26.1 °F 18.4 °F 12.9 °F 58% 30.32 in 10.0 mi North 6.9 mph - N/A   Clear
5:53 PM 24.1 °F 19.7 °F 12.0 °F 60% 30.35 in 10.0 mi NNE 3.5 mph - N/A   Clear
6:53 PM 23.0 °F 15.8 °F 12.0 °F 63% 30.36 in 10.0 mi NE 5.8 mph - N/A   Clear
7:53 PM 21.9 °F 11.0 °F 12.9 °F 68% 30.35 in 10.0 mi NE 10.4 mph - N/A   Clear
8:53 PM 21.0 °F 9.9 °F 12.9 °F 71% 30.32 in 10.0 mi ENE 10.4 mph - N/A   Clear
9:53 PM 21.0 °F 13.4 °F 12.0 °F 68% 30.32 in 10.0 mi East 5.8 mph - N/A   Clear
10:53 PM 21.0 °F 9.9 °F 12.9 °F 71% 30.28 in 10.0 mi ENE 10.4 mph - N/A   Clear
11:53 PM 21.9 °F 14.5 °F 12.9 °F 68% 30.29 in 10.0 mi East 5.8 mph - N/A   Clear